Regional Weather Roundup
Issued by NWS

Home | Current Version | Previous Version | Text Only | Print | Product List | Glossary Off
Versions: 1 2 3 4 5 6 7 8 9 10 11 12 13 14 15 16 17 18 19 20 21 22 23 24 25 26 27 28 29 30 31 32 33 34 35 36 37 38 39 40 41 42 43 44 45 46 47 48 49 50

000
ASUS45 KCYS 220910
RWRWY

WYOMING REGIONAL WEATHER ROUNDUP
NATIONAL WEATHER SERVICE CHEYENNE WY
300 AM MDT SUN OCT 22 2017

NOTE:  "FAIR" INDICATES FEW OR NO CLOUDS BELOW 12,000 FEET
WITH NO SIGNIFICANT WEATHER AND/OR OBSTRUCTIONS TO VISIBILITY.

WYZ001-221000-
YELLOWSTONE NATIONAL PARK

CITY           SKY/WX    TMP DP  RH WIND       PRES   REMARKS
LK YELLOWSTONE   N/A     28  26  92 VRB3      30.21S
W YELLOWSTONE  NOT AVBL

$$
WYZ002>013-054>058-071-098>099-221000-
NORTHERN WYOMING

CITY           SKY/WX    TMP DP  RH WIND       PRES   REMARKS
JACKSON        CLOUDY    34  26  72 SW12      30.24R WCI  25
CODY           FAIR      46  26  45 W23G37    29.98F
GREYBULL       FAIR      31  19  61 S5        30.02F WCI  26
WORLAND        FAIR      30  19  63 SW5       30.03F WCI  25
SHERIDAN       FAIR      30  19  63 SW5       29.90F WCI  25
BUFFALO        FAIR      35  10  35 W3        29.94F
GILLETTE       FAIR      40  15  36 SW20      29.94F WCI  30
HULETT         FAIR      30  18  59 SW6       29.97S WCI  24
NEWCASTLE      FAIR      25  18  74 E6        30.02S WCI  18

$$
WYZ014>020-022>026-101>103-221000-
CENTRAL WYOMING

CITY           SKY/WX    TMP DP  RH WIND       PRES   REMARKS
BIG PINEY      FAIR      18  12  77 E3        30.28S
PINEDALE       CLOUDY    27  21  80 W5        30.27F WCI  21
DUBOIS         CLOUDY    34  23  64 NW25G41   30.13R WCI  21
LANDER         FAIR      34  17  50 VRB6      30.09S WCI  29
RIVERTON       FAIR      34  18  52 SW12      30.09F WCI  25
CASPER         FAIR      37  17  44 SW22      30.06F WCI  26
DOUGLAS        FAIR      34  17  50 NW8       30.06S WCI  27

$$
WYZ021-027>030-104>119-221000-
SOUTHERN WYOMING

CITY           SKY/WX    TMP DP  RH WIND       PRES   REMARKS
EVANSTON       MOCLDY    37  17  44 SW8G16    30.33F WCI  31
KEMMERER       CLOUDY    32  18  55 SW7       30.31R WCI  26
FORT BRIDGER   FAIR      38  17  44 W18G25    30.34S WCI  28
ROCK SPRINGS   FAIR      36  14  40 W25G37    30.30F WCI  24
DIXON          FAIR      33  22  64 NW5       30.37S WCI  28
RAWLINS        FAIR      35  15  44 W21G30    30.23R WCI  24
SARATOGA       FAIR      34  19  55 SW12      30.28S WCI  25
LARAMIE        FAIR      36  14  40 W30G38    30.17S WCI  23
CHEYENNE       FAIR      42  15  33 W16G25    30.12R
TORRINGTON     FAIR      47  13  25 W22G31    30.06S
PINE BLUFFS    FAIR      32  19  59 MISG      30.12R

$$



USA.gov is the U.S. government's official web portal to all federal, state and local government web resources and services.